Location: Asheville, NC
(35.6000°N, 82.5500°W)
Time: 07:05:44
(UTC-05:00)

Vanguard 1 Rocket - Pass Details

Date: 25 January 2018
Orbit: 655 x 4222 km, 34.3° (Epoch: 18 February)

Event Time Altitude Azimuth Distance (km) Brightness Sun altitude
Exits shadow 02:46:44 23° 169° (S) 5,791 11.2 -58.0°
Maximum altitude 02:53:34 26° 145° (SE) 5,069 11.1 -56.7°
Drops below altitude 10° 03:05:47 10° 96° (E) 5,132 11.6 -54.3°
Sets 03:09:52 0° 84° (E) 5,652 12.0 -53.6°
